Location: Unspecified
(33.9239°N, 118.0544°W)
Time: 20:36:15
(UTC-07:00)

Cosmos 1674 - Visible Passes

Search period start: 26 September 2016 00:00
Search period end: 06 October 2016 00:00
Orbit: 501 x 524 km, 82.5° (Epoch: 26 September)

Date Brightness Start Highest point End Pass type
(mag) Time Alt. Az. Time Alt. Az. Time Alt. Az.
26 Sep 4.3 20:25:07 10° N 20:26:55 25° NNE 20:26:55 25° NNE visible
27 Sep 3.8 20:09:13 10° N 20:11:36 30° NE 20:11:36 30° NE visible
28 Sep 3.6 19:53:23 10° NNE 19:56:23 30° ENE 19:56:23 30° ENE visible
28 Sep 5.9 21:30:24 10° WNW 21:31:23 12° WNW 21:31:23 12° WNW visible
29 Sep 3.8 19:37:36 10° NNE 19:40:50 24° ENE 19:41:20 24° E visible
29 Sep 5.5 21:13:47 10° NW 21:16:13 16° W 21:16:21 16° W visible
30 Sep 4.1 19:21:54 10° NNE 19:24:46 19° ENE 19:26:30 15° ESE visible
30 Sep 5.2 20:57:22 10° NW 21:00:16 20° W 21:01:31 18° WSW visible
01 Oct 4.4 19:06:20 10° NE 19:08:42 16° ENE 19:11:05 10° ESE visible
01 Oct 4.9 20:41:05 10° NNW 20:44:20 26° W 20:47:03 13° SW visible
02 Oct 4.4 20:24:51 10° NNW 20:28:22 33° W 20:31:50 10° SSW visible
03 Oct 3.9 20:08:42 10° NNW 20:12:23 42° W 20:16:03 10° SSW visible
04 Oct 3.4 19:52:35 10° NNW 19:56:24 56° W 20:00:10 10° S visible
05 Oct 2.9 19:36:31 10° N 19:40:24 74° W 19:44:14 10° S visible
